Temperature
12 12 12 12 12 12 12 11 11 11 11 11 11 11 11 11 11 11 11 11 11 11 11 11 11 11 10 10 10 10 10 10 11 11 11 10 10 10 10 10 10 10 10
12 12 11 11 11 11 11 11 11 11 11 11 11 11 11 11 11 11 11 11 11 11 11 11 10 10 10 10 10 10 10 10 10 10 10 10 10 10 10 10 10 9 9
11 11 11 11 11 11 11 11 10 10 10 10 11 10 10 10 10 11 11 11 10 10 10 10 10 10 10 10 9 9 10 10 10 10 10 10 10 9 9 9 9 9 9
11 11 11 11 11 10 10 10 10 10 10 10 10 10 10 10 10 10 10 10 10 10 10 10 10 10 9 9 9 9 9 9 9 9 9 9 9 9 9 9 9 9 9
10 11 10 10 10 10 10 10 10 10 10 10 10 10 10 10 10 10 10 10 10 10 10 10 9 9 9 9 9 8 9 9 9 9 9 8 8 8 8 8 8 8 8
10 10 10 10 10 10 9 9 9 9 9 9 9 9 9 9 9 9 9 9 9 9 9 9 9 9 9 9 9 8 8 8 8 8 8 8 8 8 7 7 7 7 7
9 9 10 9 9 9 9 9 9 9 9 9 9 8 9 9 9 9 9 9 9 9 9 9 9 9 9 9 8 8 8 8 8 8 8 7 7 7 7 7 7 7 7
9 9 9 9 9 9 9 9 9 9 9 8 8 8 8 8 8 8 8 8 9 8 9 9 9 9 8 8 8 8 8 8 7 7 7 7 7 6 6 6 6 6 6
9 9 9 9 9 9 9 9 8 8 8 8 8 8 8 8 7 8 8 8 8 8 8 8 8 8 8 8 8 8 8 8 7 7 7 7 6 6 6 6 6 6 6
8 8 8 8 8 8 8 8 8 8 8 8 8 8 8 8 7 7 7 7 7 8 8 8 8 8 8 8 8 7 7 7 7 7 6 6 6 6 6 5 5 5 5
8 8 8 8 8 8 8 8 8 8 8 8 8 8 7 7 7 7 7 7 7 7 7 7 7 7 7 7 7 7 7 7 7 6 6 6 6 5 5 5 5 5 5
7 7 7 7 8 8 7 7 7 7 7 7 7 7 7 7 7 7 7 7 7 7 7 7 7 7 7 7 7 6 6 6 6 6 6 6 5 5 5 5 5 5 4
7 7 7 7 7 7 7 7 7 7 7 7 7 7 7 7 7 7 7 6 6 6 6 6 6 6 6 6 6 6 6 6 6 5 5 5 5 5 5 5 4 4 4
7 7 7 7 7 7 7 7 7 7 7 6 6 6 6 6 6 6 6 6 5 5 6 6 6 6 6 6 6 5 5 5 5 5 5 5 5 5 4 4 4 4 4
6 6 6 6 6 6 6 6 6 6 6 6 6 6 6 6 6 6 5 5 5 5 5 5 5 5 5 5 5 5 5 5 5 5 4 4 4 4 4 4 4 3 3
6 6 6 6 6 6 6 6 6 6 6 5 5 5 5 5 5 5 5 5 5 4 4 5 5 5 5 5 5 4 4 4 4 4 4 4 3 3 3 3 3 3 3
5 6 6 6 6 5 5 5 5 5 5 5 5 5 5 5 4 4 4 4 4 4 4 4 4 4 4 4 4 4 4 4 4 3 3 3 3 3 2 2 2 2 2
5 5 5 5 5 5 5 5 5 5 5 5 5 4 4 4 4 4 4 4 4 4 3 4 4 4 4 3 3 3 3 3 3 3 3 2 2 2 2 2 2 2 2
5 5 5 5 5 5 5 5 5 5 4 4 4 4 4 4 4 4 3 3 3 3 3 3 3 3 3 3 3 3 3 2 2 2 2 2 2 2 1 1 1 1 1
4 4 4 4 4 4 4 4 4 4 4 4 4 4 3 3 3 3 3 3 3 2 2 2 2 3 3 2 2 2 2 2 2 2 1 1 1 1 1 1 1 1 1
4 4 4 4 4 4 4 4 4 4 4 4 3 3 3 3 3 3 2 2 2 2 2 2 2 2 2 2 2 1 1 1 1 1 1 1 0 1 1 0 0 0 0
4 4 4 4 4 4 4 4 3 3 3 3 3 3 3 3 2 2 2 2 2 1 1 1 1 1 1 1 1 1 0 0 -0 0 0 0 0 0 0 -0 -0 -0 -0
3 3 3 3 3 3 3 3 3 3 3 3 3 3 2 2 2 2 2 2 1 1 1 1 1 1 1 0 0 -0 -0 -0 -1 -1 -1 -0 -0 -0 -0 -1 -1 -1 -1
3 3 3 3 3 3 3 2 2 2 2 2 2 2 2 2 2 1 1 1 1 1 0 0 0 0 -0 -0 -1 -1 -1 -1 -1 -1 -1 -1 -1 -1 -1 -1 -1 -1 -1
3 2 2 2 2 2 2 2 2 2 2 2 2 1 1 1 1 1 1 1 1 0 0 -0 -0 -0 -1 -1 -1 -1 -1 -2 -2 -2 -2 -2 -2 -2 -1 -1 -1 -2 -2
2 2 2 2 2 2 2 1 1 1 1 1 1 1 1 1 1 0 0 0 0 0 -0 -1 -1 -1 -1 -1 -1 -2 -2 -2 -2 -2 -2 -2 -2 -3 -3 -2 -2 -3 -3
Wind_Speed
4 3 3 3 4 5 4 4 4 4 4 4 5 6 5 6 6 6 6 7 7 7 8 8 9 9 8 8 8 8 8 8 8 8 8 8 8 8 8 9 8 8 8
5 4 3 3 3 5 5 5 4 4 3 4 4 4 5 5 5 6 6 6 7 7 7 8 8 7 7 6 6 7 6 6 6 7 7 6 7 7 7 7 7 8 8
7 5 4 3 3 5 6 5 5 5 3 4 3 3 4 4 5 5 6 6 6 6 7 6 6 6 6 5 5 5 5 5 5 5 5 5 5 5 5 5 6 6 6
7 6 4 3 4 5 5 4 3 3 3 3 2 2 3 3 4 4 5 5 5 5 5 5 5 5 4 4 4 4 3 3 3 3 3 3 3 3 3 4 4 4 5
7 5 4 3 5 4 3 3 2 3 3 2 2 2 1 1 2 3 4 5 5 5 5 4 4 3 3 4 4 3 3 2 2 2 2 1 1 1 1 2 3 3 4
6 5 4 4 4 3 2 2 3 2 2 2 2 2 2 1 1 2 3 3 4 5 5 5 4 3 2 2 2 2 2 2 2 2 2 2 1 1 1 1 2 3 3
5 5 4 4 3 3 3 3 3 3 2 2 3 2 3 2 1 0 2 2 2 3 4 5 4 3 2 2 2 2 3 3 3 3 3 3 3 3 3 3 3 3 4
3 4 4 3 3 3 3 3 3 2 1 2 2 2 1 2 2 1 1 2 2 2 3 4 4 4 3 2 1 2 3 3 4 4 4 5 4 4 5 4 4 4 4
3 4 4 4 3 2 3 3 3 3 3 1 1 2 2 3 1 2 1 1 1 1 2 3 4 5 5 4 3 3 3 4 5 6 6 6 6 6 6 6 6 5 5
2 3 4 4 3 2 3 3 2 2 4 3 1 0 1 2 2 1 2 1 2 3 3 3 3 4 5 5 4 4 4 5 6 7 8 7 7 7 7 7 7 7 6
2 3 3 4 3 2 3 2 2 3 3 3 2 1 1 1 1 2 2 2 2 3 3 4 4 4 5 5 4 4 4 5 6 8 8 8 8 8 8 8 8 7 7
1 2 3 3 3 2 3 3 2 3 3 2 2 2 2 2 2 2 2 2 3 3 3 3 4 4 5 5 5 5 4 5 6 7 9 9 9 9 8 9 9 8 8
1 1 1 2 2 2 3 3 3 3 3 3 3 2 2 2 2 2 2 2 2 3 2 2 4 5 5 5 5 6 6 6 7 8 9 9 9 10 10 9 9 9 9
2 2 2 2 2 3 3 3 2 3 3 3 3 3 2 3 2 2 2 2 2 2 3 4 2 5 5 5 6 6 6 7 8 9 9 9 9 9 9 9 9 10 10
1 1 1 1 2 2 3 3 2 3 3 3 3 3 3 3 2 2 2 3 3 3 5 4 3 3 5 5 6 6 6 7 8 9 9 9 9 9 9 9 10 10 10
1 1 1 1 2 2 2 2 2 3 3 3 3 4 3 2 2 2 3 3 3 4 5 4 4 3 4 5 6 6 7 8 8 9 10 10 10 9 9 10 10 10 10
2 2 2 2 2 3 3 3 3 3 4 4 4 4 5 4 3 3 3 3 3 4 5 4 3 2 3 4 4 6 7 8 8 10 11 10 10 10 10 10 10 10 11
2 3 2 2 3 3 3 4 4 4 5 5 5 5 5 4 5 4 4 4 4 4 5 6 4 2 4 4 4 4 5 7 8 9 10 11 11 10 10 10 11 11 11
3 3 3 3 4 4 4 4 4 5 5 5 6 6 6 5 6 5 5 5 4 4 4 4 4 3 2 2 3 3 4 5 7 9 10 10 11 11 11 11 11 11 11
3 3 4 4 4 4 4 4 4 4 5 5 6 6 6 7 7 6 5 5 4 4 4 4 4 3 3 2 2 3 4 3 4 6 8 8 9 11 12 12 11 11 11
3 3 3 3 4 4 4 4 4 5 5 5 5 6 6 7 9 7 6 5 5 5 4 4 4 4 3 3 4 3 4 4 4 3 3 4 6 7 9 10 11 11 11
2 3 3 4 4 4 6 7 5 4 5 5 6 5 5 6 8 10 10 9 9 7 6 5 5 6 6 5 4 4 3 3 5 2 2 4 4 5 7 8 10 11 11
3 3 3 4 5 6 7 8 7 4 5 5 6 5 5 5 7 6 9 9 10 11 10 7 7 8 6 6 5 5 5 5 6 4 2 5 3 4 6 8 11 11 10
3 3 4 4 5 6 8 8 8 5 4 5 6 6 6 6 6 6 6 6 6 7 8 7 7 7 6 6 6 6 5 4 3 3 3 5 4 4 5 7 9 9 8
3 4 4 4 5 6 8 8 7 4 4 5 6 6 6 6 9 8 5 6 6 6 7 9 10 9 9 8 6 2 2 3 4 3 2 3 2 3 4 4 6 7 8
3 3 4 4 5 5 7 8 6 3 4 4 4 5 7 7 9 8 6 6 7 5 3 4 5 6 6 7 7 5 4 4 3 3 2 2 2 2 3 2 2 4 6
Wind_Direction
147 140 134 124 115 113 107 99 100 100 96 96 113 114 108 107 101 99 96 106 116 118 121 122 121 117 112 109 108 104 99 93 90 87 83 80 77 73 68 63 57 52 50
144 139 135 120 118 123 123 118 110 104 94 95 93 102 108 112 109 109 104 106 115 120 123 124 127 125 121 118 116 112 106 99 96 92 87 80 76 71 68 61 54 50 46
145 140 135 133 129 127 121 110 102 95 96 95 89 88 101 113 116 116 117 113 115 120 125 128 130 131 132 132 128 123 117 110 106 100 93 85 76 68 67 61 50 43 38
148 138 136 138 136 126 120 119 116 103 95 92 85 78 87 98 115 123 124 122 119 118 124 131 131 135 144 147 144 139 133 128 126 118 107 93 77 62 61 60 47 37 30
148 142 140 138 135 125 122 135 122 124 119 104 95 82 76 90 113 127 126 134 137 134 126 126 131 136 150 161 161 162 160 159 155 150 137 120 83 49 49 44 36 27 21
148 142 136 134 131 128 126 133 134 121 131 131 95 62 29 24 100 137 147 138 141 148 145 137 129 128 144 162 180 195 203 207 204 205 210 219 235 269 299 322 344 352 354
147 142 139 136 136 146 151 145 142 128 114 114 87 50 12 8 31 152 142 136 140 156 151 149 147 145 150 175 200 227 239 236 236 241 241 242 250 256 270 283 299 311 319
150 148 139 143 145 147 146 144 135 136 136 126 126 120 62 347 339 321 207 175 178 153 159 169 165 166 168 169 218 243 254 257 256 259 259 256 258 265 269 274 284 292 301
145 141 144 139 140 152 168 171 162 152 165 180 148 156 160 203 265 307 270 213 203 195 197 188 183 187 189 192 209 232 250 263 267 268 267 264 261 263 268 272 279 285 292
135 143 140 142 148 153 165 182 176 167 162 179 204 253 161 156 168 236 302 288 252 229 223 212 201 200 199 201 213 226 241 257 267 271 271 265 265 266 270 273 277 282 288
138 144 146 148 155 167 174 171 172 167 174 181 184 178 130 72 148 174 237 276 284 254 236 219 207 205 208 205 210 226 241 259 267 273 273 266 267 271 272 274 276 280 284
149 152 157 158 161 171 181 181 174 171 180 179 188 185 180 180 190 182 212 254 266 273 258 227 208 203 206 209 219 231 242 259 270 275 275 272 271 272 274 273 275 279 282
267 213 176 172 176 179 178 171 174 179 179 184 193 202 206 218 199 194 201 236 267 283 276 257 223 208 204 211 229 237 243 256 269 275 276 276 280 277 274 273 275 279 282
226 207 182 181 182 177 181 177 185 198 188 188 199 197 209 223 214 202 194 195 260 277 262 258 254 215 208 217 234 241 249 257 268 275 277 279 282 283 276 274 276 278 280
220 182 172 182 187 186 186 184 192 201 195 204 207 207 215 222 215 213 199 196 200 241 255 247 243 233 225 231 238 241 253 262 269 275 276 279 284 282 277 275 276 276 278
201 180 187 200 207 206 196 199 205 204 204 218 216 212 224 227 217 213 210 214 213 221 247 241 236 241 235 242 247 249 255 264 268 272 273 276 281 281 277 275 275 274 275
201 199 206 216 225 219 208 203 217 210 211 224 226 220 227 222 222 220 215 217 221 217 243 262 250 246 227 231 253 254 261 262 266 271 273 274 278 279 278 275 276 274 274
208 208 206 213 231 231 218 207 216 218 217 225 230 227 231 225 228 227 221 223 227 224 229 254 261 244 239 230 232 248 262 264 266 269 272 274 274 277 277 278 278 277 276
218 217 211 217 230 231 225 220 220 223 227 232 230 229 230 221 232 232 227 227 229 233 230 240 257 253 251 238 244 259 262 268 275 275 277 273 271 273 277 281 278 277 277
215 221 223 226 232 233 227 224 225 231 236 239 233 229 228 223 228 229 230 227 224 227 231 238 254 258 252 243 225 249 270 266 274 284 279 275 276 279 279 278 277 276 273
228 229 231 239 242 238 232 231 231 233 235 243 243 236 234 234 235 233 233 225 219 225 231 239 249 257 251 240 240 237 259 276 278 262 267 269 275 281 282 278 275 275 274
245 242 238 239 247 254 257 250 245 236 236 240 249 251 249 244 244 246 244 237 227 227 228 234 246 247 249 241 236 240 244 266 275 241 240 269 261 266 277 278 276 280 277
247 255 252 245 248 257 264 262 257 250 240 240 244 249 256 253 255 245 246 243 239 241 238 234 240 244 243 235 227 235 238 245 256 246 245 274 268 269 276 278 281 280 278
243 249 255 253 256 264 269 269 265 254 246 245 242 243 247 252 247 244 242 241 241 243 242 238 237 242 242 234 224 228 233 247 264 257 220 258 271 270 282 282 276 269 273
252 250 253 251 254 266 269 269 265 250 248 252 250 246 245 245 252 251 243 242 251 257 256 247 249 253 251 249 236 209 219 249 274 266 219 224 261 290 287 279 275 269 277
256 259 265 260 256 264 273 271 263 244 252 261 264 256 252 255 258 254 242 235 246 249 239 247 250 253 246 240 236 223 211 232 259 258 216 205 255 303 300 279 274 278 280
Height
1520 1521 1523 1524 1525 1526 1528 1529 1531 1532 1533 1534 1535 1536 1537 1538 1539 1539 1540 1541 1541 1541 1542 1542 1542 1542 1542 1542 1542 1542 1542 1542 1542 1541 1541 1541 1540 1540 1540 1539 1539 1539 1538
1518 1519 1521 1522 1524 1525 1527 1528 1530 1531 1532 1533 1534 1535 1536 1537 1537 1538 1539 1540 1540 1540 1541 1541 1541 1541 1541 1541 1541 1541 1541 1541 1541 1540 1540 1540 1540 1539 1539 1538 1538 1538 1537
1516 1517 1519 1521 1522 1524 1525 1527 1528 1530 1531 1532 1533 1534 1535 1536 1536 1537 1537 1538 1539 1539 1540 1540 1540 1540 1540 1540 1540 1540 1540 1540 1540 1540 1539 1539 1539 1539 1538 1538 1537 1536 1536
1514 1515 1517 1519 1520 1522 1524 1525 1527 1528 1529 1530 1531 1532 1533 1534 1534 1535 1536 1536 1537 1538 1538 1538 1539 1539 1539 1539 1539 1539 1539 1539 1539 1538 1538 1538 1538 1537 1537 1536 1536 1535 1534
1512 1514 1515 1517 1519 1520 1522 1523 1525 1526 1527 1528 1529 1530 1531 1532 1533 1533 1534 1535 1535 1536 1536 1537 1537 1537 1538 1538 1538 1538 1538 1537 1537 1537 1537 1536 1536 1536 1535 1535 1534 1534 1533
1511 1512 1514 1515 1517 1518 1520 1521 1523 1524 1525 1526 1527 1528 1529 1530 1531 1531 1532 1533 1534 1534 1534 1534 1535 1535 1536 1536 1536 1536 1536 1536 1535 1535 1535 1534 1534 1534 1533 1533 1532 1532 1531
1509 1510 1512 1513 1515 1517 1518 1519 1520 1522 1523 1524 1525 1525 1527 1528 1528 1529 1530 1530 1531 1532 1532 1532 1532 1533 1533 1533 1534 1534 1534 1533 1533 1533 1533 1532 1532 1532 1531 1531 1530 1530 1529
1507 1509 1510 1512 1513 1515 1516 1517 1518 1519 1520 1521 1522 1523 1524 1526 1526 1527 1527 1528 1529 1529 1530 1530 1530 1530 1530 1531 1531 1531 1531 1531 1531 1531 1531 1530 1530 1529 1529 1529 1528 1527 1526
1506 1508 1509 1510 1511 1512 1514 1515 1516 1516 1517 1519 1521 1522 1522 1522 1523 1524 1524 1525 1526 1526 1527 1527 1527 1528 1528 1528 1528 1528 1528 1528 1528 1528 1528 1527 1527 1527 1526 1526 1525 1524 1523
1504 1505 1506 1508 1509 1510 1512 1513 1514 1515 1515 1516 1518 1519 1520 1520 1520 1520 1521 1522 1523 1523 1524 1524 1524 1525 1524 1525 1525 1525 1525 1525 1524 1524 1524 1524 1524 1523 1523 1522 1522 1521 1520
1502 1503 1504 1506 1507 1508 1509 1510 1511 1512 1513 1513 1515 1516 1517 1517 1518 1517 1517 1518 1519 1519 1520 1520 1521 1521 1521 1521 1521 1521 1521 1521 1521 1521 1520 1520 1520 1519 1519 1518 1518 1517 1516
1499 1500 1502 1503 1504 1505 1506 1507 1509 1509 1510 1511 1512 1513 1514 1514 1514 1515 1514 1514 1514 1515 1516 1516 1517 1517 1517 1517 1517 1517 1517 1517 1517 1516 1516 1516 1515 1515 1514 1513 1513 1512 1511
1496 1497 1499 1500 1501 1502 1504 1504 1505 1506 1507 1508 1509 1510 1511 1511 1512 1512 1512 1511 1511 1511 1512 1512 1512 1513 1513 1513 1513 1513 1513 1513 1513 1512 1512 1511 1511 1510 1509 1508 1508 1507 1506
1494 1495 1496 1497 1498 1499 1500 1501 1502 1503 1504 1505 1505 1506 1507 1508 1508 1508 1508 1508 1508 1507 1507 1507 1508 1509 1509 1509 1509 1509 1509 1508 1508 1507 1507 1506 1505 1505 1504 1503 1502 1502 1501
1492 1492 1493 1495 1496 1497 1497 1498 1499 1499 1500 1501 1502 1503 1503 1503 1504 1504 1504 1505 1506 1504 1502 1503 1504 1504 1504 1504 1504 1504 1504 1503 1503 1502 1502 1501 1500 1499 1499 1498 1497 1496 1495
1489 1490 1490 1492 1493 1494 1494 1495 1495 1496 1497 1497 1498 1498 1498 1499 1499 1499 1500 1500 1501 1500 1499 1498 1499 1500 1500 1500 1499 1499 1499 1498 1498 1497 1496 1495 1494 1494 1493 1492 1492 1491 1490
1486 1487 1488 1489 1490 1490 1490 1491 1491 1492 1492 1493 1493 1493 1493 1494 1494 1494 1495 1495 1495 1495 1494 1493 1494 1495 1495 1494 1494 1494 1493 1493 1492 1491 1491 1490 1489 1488 1487 1487 1486 1485 1485
1484 1484 1485 1486 1486 1486 1487 1487 1487 1487 1487 1488 1488 1488 1488 1489 1489 1489 1489 1490 1490 1490 1490 1488 1488 1488 1489 1488 1488 1488 1487 1487 1486 1485 1485 1484 1483 1483 1482 1481 1480 1479 1479
1481 1481 1482 1482 1482 1482 1482 1483 1483 1483 1483 1483 1483 1484 1484 1484 1484 1484 1484 1484 1485 1485 1484 1483 1482 1482 1482 1483 1482 1482 1481 1481 1480 1480 1479 1478 1478 1477 1476 1476 1475 1474 1473
1477 1478 1478 1478 1479 1479 1478 1478 1478 1478 1478 1478 1478 1479 1479 1479 1479 1479 1479 1479 1479 1479 1479 1478 1477 1476 1477 1477 1476 1475 1474 1474 1474 1474 1473 1472 1472 1471 1470 1469 1469 1468 1466
1474 1474 1474 1474 1475 1475 1474 1474 1474 1473 1473 1473 1473 1473 1473 1473 1473 1473 1473 1473 1473 1473 1472 1472 1471 1471 1470 1471 1470 1470 1469 1468 1467 1467 1467 1466 1466 1465 1465 1463 1462 1461 1460
1470 1470 1470 1470 1470 1470 1470 1470 1469 1469 1468 1468 1468 1467 1467 1467 1467 1467 1467 1467 1467 1467 1466 1466 1465 1465 1464 1465 1465 1464 1463 1462 1460 1462 1461 1460 1461 1459 1458 1457 1456 1455 1454
1467 1466 1466 1466 1466 1466 1465 1465 1465 1464 1463 1463 1462 1462 1461 1461 1461 1461 1460 1460 1460 1460 1460 1460 1459 1459 1459 1459 1459 1458 1457 1456 1455 1456 1455 1453 1454 1453 1453 1451 1450 1449 1448
1463 1462 1462 1462 1461 1461 1461 1460 1460 1459 1458 1457 1457 1456 1456 1455 1455 1454 1454 1454 1453 1453 1453 1453 1453 1453 1453 1453 1453 1453 1452 1451 1450 1450 1450 1448 1447 1446 1446 1445 1444 1443 1442
1459 1458 1458 1457 1456 1456 1456 1455 1455 1453 1452 1451 1451 1450 1450 1449 1449 1449 1448 1447 1447 1447 1447 1447 1447 1447 1447 1447 1447 1447 1446 1445 1444 1444 1444 1443 1441 1440 1439 1439 1438 1438 1437
1455 1454 1453 1453 1452 1451 1451 1450 1450 1448 1447 1446 1445 1444 1444 1443 1443 1442 1442 1441 1440 1440 1440 1440 1441 1441 1441 1441 1441 1441 1441 1440 1439 1438 1438 1438 1436 1435 1433 1432 1433 1432 1431